Skip Page Navigation
NASA JPL Caltech
NASA Logo - Jet Propulsion Laboratory + View the NASA Portal
+ Near-Earth Object (NEO) Program
Search JPL
JPL Home Earth Solar System Stars & Galaxies Technology
JPL Solar System Dynamics
BODIES ORBITS EPHEMERIDES TOOLS PHYSICAL DATA DISCOVERY FAQ SITE MAP
JPL Small-Body Database Browser
Search: [ help ]  
162422 (2000 EV70)
Classification: Apollo [NEO, PHA]          SPK-ID: 2162422
Ephemeris | Orbit Diagram | Orbital Elements | Physical Parameters | Discovery Circumstances | Close-Approach Data ]

[ hide orbit diagram ]
Orbit Diagram
Note: Make sure you have Java enabled on your browser to see the applet. This applet is provided as a 3D orbit visualization tool. The applet was implemented using 2-body methods, and hence should not be used for determining accurate long-term trajectories (over several years or decades) or planetary encounter circumstances. For accurate long-term ephemerides, please instead use our Horizons system.
Orbit Viewer

Additional Notes: the orbits shown in the applet are color coded. The planets are white lines, and the asteroid/comet is a blue line. The bright white line indicates the portion of the orbit that is above the ecliptic plane, and the darker portion is below the ecliptic plane. Likewise for the asteroid/comet orbit, the light blue indicates the portion above the ecliptic plane, and the dark blue the portion below the ecliptic plane.

Orbit Viewer applet originally written and kindly provided by Osamu Ajiki (AstroArts), and further modified by Ron Baalke (JPL).


Orbital Elements at Epoch 2456400.5 (2013-Apr-18.0) TDB
Reference: JPL 54 (heliocentric ecliptic J2000)
 Element Value Uncertainty (1-sigma)   Units 
e .531165768844583 6.8841e-07  
a 1.207221185226123 3.2486e-08 AU
q .5659866162100207 8.176e-07 AU
i 1.398538599313598 5.4379e-06 deg
node 108.9316407487933 0.00057315 deg
peri 314.5059607781885 0.00057845 deg
M .3464270713406831 3.765e-05 deg
tp 2456400.033783090987
(2013-Apr-17.53378309)
5.0677e-05 JED
period 484.4831744682114
1.33
1.9556e-05
5.354e-08
d
yr
n .7430598604278688 2.9994e-08 deg/d
Q 1.848455754242225 4.9742e-08 AU
  Orbit Determination Parameters
   # obs. used (total)      201  
   data-arc span      4426 days (12.12 yr)  
   first obs. used      2000-03-08  
   last obs. used      2012-04-20  
   planetary ephem.      DE405  
   SB-pert. ephem.      SB405-CPV-2  
   condition code      0  
   fit RMS      .58895  
   data source      ORB  
   producer      Otto Matic  
   solution date      2013-Apr-29 15:39:42  

Additional Information
 Earth MOID = .0119002 AU 
 T_jup = 5.126 
[ show covariance matrix ]

Ephemeris | Orbit Diagram | Orbital Elements | Physical Parameters | Discovery Circumstances | Close-Approach Data ]

Physical Parameter Table
Parameter Symbol Value Units Sigma Reference Notes
absolute magnitude H 20.329 mag .68833 54 autocmod 2.5c

162422 (2000 EV70)          Discovered 2000-Mar-08 by LINEAR at Socorro (704)
Reference: 20070926/Numbers.arcLast Updated: 2007-09-30

[ show close-approach data ]
Ephemeris | Orbit Diagram | Orbital Elements | Physical Parameters | Discovery Circumstances | Close-Approach Data ]
ABOUT SSD CREDITS/AWARDS PRIVACY/COPYRIGHT GLOSSARY LINKS
FirstGov 2013-May-19 22:32 UT
(server date/time)  
NASA Home Page
Site Manager:   Donald K. Yeomans
Webmaster  Alan B. Chamberlin